CW9861 Weather Reports


time (UTC)temp
F
wind
direction
speed
knots
gust
knots
rain 1hr
in
rain 24hr
in
rain mn
in
humidity
%
barometer
mb
20260831043057 69 90 0.0 1.7 0.00 0.42 0.00 89 1014.7
20260831042556 69 90 0.0 1.7 0.00 0.42 0.00 89 1014.6
20260831042056 69 97 0.0 1.7 0.00 0.42 0.00 89 1014.6
20260831041556 69 176 0.0 0.0 0.00 0.42 0.00 88 1014.6
20260831033556 70 176 0.0 0.9 0.00 0.42 0.42 88 1014.5
20260831033056 70 180 0.0 0.0 0.00 0.42 0.42 87 1014.7
20260831032556 71 180 0.0 0.0 0.00 0.42 0.42 87 1014.7
20260831032056 71 180 0.0 0.0 0.00 0.42 0.42 87 1014.8
20260831031557 71 180 0.0 0.0 0.00 0.42 0.42 87 1014.7
20260831031057 71 180 0.0 0.0 0.00 0.42 0.42 86 1014.7
20260831030557 71 180 0.0 0.0 0.00 0.42 0.42 86 1014.7
20260831030057 71 180 0.0 0.0 0.00 0.42 0.42 86 1014.7
20260831025557 71 180 0.0 0.0 0.00 0.42 0.42 86 1014.7
20260831025056 71 180 0.0 0.0 0.00 0.42 0.42 86 1014.6
20260831024556 72 180 0.0 0.0 0.00 0.42 0.42 86 1014.7
20260831024056 72 180 0.0 0.0 0.00 0.42 0.42 86 1014.7
20260831023557 72 180 0.0 0.0 0.00 0.42 0.42 86 1014.7
20260831023056 72 180 0.0 0.0 0.00 0.42 0.42 86 1014.6
20260831015057 73 179 0.0 2.6 0.00 0.43 0.42 84 1014.3
20260831014557 73 225 0.0 0.9 0.00 0.43 0.42 84 1014.3
20260831014058 73 223 0.0 0.9 0.00 0.43 0.42 83 1014.2
20260831013558 73 221 0.0 0.0 0.00 0.43 0.42 83 1014.1
20260831013058 73 222 0.0 0.0 0.00 0.43 0.42 82 1014.0
20260831012557 73 221 0.0 0.0 0.00 0.43 0.42 83 1014.1
20260831012058 74 221 0.0 0.0 0.00 0.43 0.42 83 1014.1
20260831011558 74 221 0.0 0.0 0.00 0.43 0.42 83 1014.0
20260831011059 74 222 0.0 0.9 0.00 0.43 0.42 83 1013.9
20260831010558 74 221 0.0 0.9 0.00 0.43 0.42 82 1013.7
20260831010057 74 222 0.0 0.0 0.00 0.43 0.42 82 1013.7
20260831005557 74 223 0.0 0.9 0.00 0.43 0.42 82 1013.6
20260831005056 75 354 0.0 1.7 0.00 0.43 0.42 82 1013.5
20260831004556 75 103 0.0 0.9 0.00 0.43 0.42 82 1013.5
20260831004056 75 201 0.0 1.7 0.00 0.43 0.42 81 1013.5
20260831003556 75 201 0.9 1.7 0.00 0.43 0.42 81 1013.5
20260831003056 75 215 0.0 2.6 0.00 0.43 0.42 81 1013.5
20260831002556 75 305 0.9 2.6 0.00 0.43 0.42 81 1013.6
20260831002056 75 182 0.9 1.7 0.00 0.43 0.42 80 1013.6
20260831001557 76 180 0.0 4.3 0.00 0.43 0.42 80 1013.6
20260831001056 76 244 0.0 4.3 0.00 0.43 0.42 80 1013.6
20260831000557 76 345 0.9 3.5 0.00 0.43 0.42 80 1013.6
20260831000059 76 296 1.7 4.3 0.00 0.43 0.42 80 1013.5
20260830235557 76 222 1.7 3.5 0.00 0.43 0.42 80 1013.6
20260830235057 76 228 2.6 3.5 0.00 0.43 0.42 80 1013.4
20260830234558 76 194 1.7 4.3 0.00 0.43 0.42 80 1013.4
20260830234057 76 220 0.9 2.6 0.00 0.43 0.42 80 1013.4
20260830233558 76 203 0.9 4.3 0.00 0.43 0.42 80 1013.4
20260830233057 76 282 0.9 6.1 0.00 0.43 0.42 79 1013.3
20260830232557 76 259 2.6 6.1 0.00 0.43 0.42 79 1013.2
20260830232057 76 334 0.9 4.3 0.00 0.43 0.42 79 1013.2
20260830231558 76 100 0.9 4.3 0.00 0.43 0.42 78 1013.2
20260830231057 77 319 1.7 9.6 0.00 0.43 0.42 78 1013.2
20260830230557 77 253 2.6 9.6 0.00 0.43 0.42 78 1013.2
20260830230057 77 259 1.7 8.7 0.00 0.43 0.42 77 1013.2
20260830225556 77 266 2.6 8.7 0.00 0.43 0.42 76 1013.2
20260830225056 77 205 3.5 8.7 0.00 0.43 0.42 76 1013.3
20260830224556 78 254 3.5 8.7 0.00 0.43 0.42 75 1013.3
20260830224056 78 219 2.6 7.8 0.00 0.43 0.42 75 1013.3
20260830223556 78 190 1.7 7.8 0.00 0.43 0.42 75 1013.3
20260830223057 78 237 3.5 8.7 0.00 0.43 0.42 74 1013.2
20260830222556 78 255 2.6 8.7 0.00 0.43 0.42 74 1013.2
20260830222056 79 222 3.5 7.0 0.00 0.43 0.42 73 1013.3
20260830221556 79 352 0.9 5.2 0.00 0.43 0.42 73 1013.3
20260830221056 79 276 2.6 10.4 0.00 0.43 0.42 72 1013.3
20260830220556 79 192 3.5 10.4 0.00 0.43 0.42 71 1013.3
20260830220056 79 293 4.3 10.4 0.00 0.43 0.42 71 1013.4
20260830215556 79 345 4.3 11.3 0.00 0.43 0.42 71 1013.3
20260830215056 79 217 1.7 11.3 0.00 0.43 0.42 72 1013.4
20260830214556 80 188 2.6 7.8 0.00 0.43 0.42 70 1013.5
20260830214056 80 231 3.5 9.6 0.00 0.43 0.42 69 1013.5
20260830213556 81 197 2.6 9.6 0.00 0.43 0.42 68 1013.4
20260830213056 82 305 1.7 8.7 0.00 0.43 0.42 70 1013.5
20260830212556 82 236 2.6 9.6 0.00 0.43 0.42 68 1013.4
20260830212031 82 313 2.6 11.3 0.00 0.43 0.42 67 1013.4
20260830211531 82 220 1.7 10.4 0.00 0.43 0.42 69 1013.5
20260830211031 82 281 1.7 7.8 0.00 0.43 0.42 70 1013.5
20260830210531 82 11 1.7 7.8 0.00 0.43 0.42 71 1013.6
20260830210032 81 191 0.9 7.0 0.00 0.43 0.42 73 1013.7
20260830205531 81 232 2.6 7.8 0.00 0.43 0.42 71 1013.7
20260830205032 82 201 1.7 7.8 0.00 0.43 0.42 70 1013.7
20260830204532 82 182 3.5 7.8 0.00 0.43 0.42 69 1013.8
20260830204032 83 175 1.7 8.7 0.00 0.43 0.42 70 1013.7
20260830203533 83 214 3.5 8.7 0.00 0.43 0.42 70 1013.6
20260830203032 83 353 3.5 8.7 0.00 0.43 0.42 71 1013.6
20260830202532 83 224 2.6 7.8 0.00 0.43 0.42 70 1013.7
20260830202032 83 230 2.6 9.6 0.00 0.43 0.42 71 1013.7
20260830201532 83 237 3.5 9.6 0.00 0.43 0.42 70 1013.9
20260830201032 83 211 1.7 11.3 0.00 0.43 0.42 73 1013.9
20260830200532 83 195 4.3 7.8 0.00 0.43 0.42 70 1013.9
20260830200033 82 271 4.3 8.7 0.00 0.43 0.42 71 1014.0
20260830195532 82 259 3.5 11.3 0.00 0.43 0.42 71 1014.0
20260830195032 82 313 3.5 9.6 0.00 0.43 0.42 71 1014.1
20260830194532 82 232 4.3 7.0 0.00 0.43 0.42 71 1014.1
20260830194032 82 18 2.6 10.4 0.00 0.43 0.42 73 1014.1
20260830193532 82 196 3.5 10.4 0.00 0.43 0.42 72 1013.9
20260830193032 82 143 3.5 11.3 0.00 0.43 0.42 73 1013.8
20260830192532 82 124 3.5 10.4 0.00 0.43 0.42 72 1013.7
20260830192032 82 189 2.6 10.4 0.00 0.43 0.42 72 1013.7
20260830191532 82 171 4.3 10.4 0.00 0.43 0.42 71 1013.7
20260830191031 82 176 4.3 9.6 0.00 0.43 0.42 72 1013.8
20260830190532 81 225 3.5 7.0 0.00 0.43 0.42 74 1013.8
20260830190034 81 221 3.5 9.6 0.00 0.43 0.42 73 1013.8
20260830185532 80 122 4.3 9.6 0.00 0.43 0.42 73 1013.6
20260830185033 80 179 4.3 8.7 0.00 0.43 0.42 73 1013.6
20260830184532 80 253 4.3 9.6 0.00 0.43 0.42 73 1013.5
20260830184032 80 132 2.6 9.6 0.00 0.43 0.42 74 1013.6
20260830183532 80 195 4.3 9.6 0.00 0.43 0.42 73 1013.5
20260830183031 80 201 4.3 8.7 0.00 0.43 0.42 75 1013.7
20260830182532 80 312 2.6 8.7 0.00 0.43 0.42 74 1013.6
20260830182032 80 203 2.6 10.4 0.00 0.43 0.42 77 1013.7
20260830181532 80 151 3.5 8.7 0.00 0.43 0.42 74 1013.6
20260830181032 80 249 1.7 10.4 0.00 0.43 0.42 80 1013.7
20260830180532 80 151 2.6 8.7 0.00 0.43 0.42 77 1013.7
20260830180032 80 232 3.5 7.0 0.00 0.43 0.42 77 1013.6
20260830175531 80 220 1.7 7.0 0.00 0.43 0.42 80 1013.6
20260830175032 79 116 1.7 8.7 0.00 0.43 0.42 78 1013.6
20260830174532 79 161 2.6 9.6 0.00 0.43 0.42 80 1013.8
20260830174031 78 215 2.6 8.7 0.00 0.43 0.42 79 1013.8
20260830173531 78 195 4.3 8.7 0.00 0.43 0.42 79 1013.8
20260830173032 78 271 3.5 7.8 0.00 0.43 0.42 81 1013.8
20260830172531 78 276 3.5 7.8 0.00 0.43 0.42 80 1013.8
20260830172032 78 205 1.7 4.3 0.00 0.43 0.42 81 1013.9
20260830171530 77 232 1.7 8.7 0.00 0.43 0.42 81 1014.0
20260830171031 77 169 2.6 10.4 0.00 0.43 0.42 81 1014.0
20260830170532 77 276 2.6 8.7 0.00 0.43 0.42 83 1014.3
20260830170031 76 257 4.3 8.7 0.00 0.43 0.42 84 1014.3
20260830165531 76 189 4.3 8.7 0.00 0.43 0.42 82 1014.4
20260830165031 76 360 1.7 7.0 0.00 0.43 0.42 85 1014.5
20260830164531 75 192 2.6 8.7 0.00 0.43 0.42 85 1014.4
20260830164032 74 221 4.3 8.7 0.00 0.43 0.42 84 1014.5
20260830163531 74 205 3.5 8.7 0.00 0.43 0.42 84 1014.6
20260830163031 74 209 3.5 7.8 0.00 0.43 0.42 85 1014.6
20260830162531 74 224 3.5 8.7 0.00 0.43 0.42 86 1014.4
20260830162031 73 118 3.5 8.7 0.00 0.43 0.42 87 1014.6
20260830161531 72 207 3.5 8.7 0.00 0.43 0.42 88 1014.6
20260830161030 72 192 1.7 5.2 0.00 0.43 0.42 88 1014.6
20260830160530 71 238 1.7 8.7 0.00 0.43 0.42 88 1014.6
20260830160031 71 181 2.6 9.6 0.00 0.43 0.42 88 1014.6
20260830155532 71 21 3.5 9.6 0.00 0.43 0.42 88 1014.6
20260830155031 70 169 1.7 8.7 0.00 0.43 0.42 89 1014.6
20260830154531 70 228 2.6 7.8 0.00 0.43 0.42 89 1014.9
20260830140034 66 220 2.6 7.8 0.00 0.43 0.42 91 1015.2
20260830135532 66 246 2.6 8.7 0.01 0.43 0.42 91 1015.4
20260830135032 66 153 3.5 8.7 0.02 0.43 0.42 91 1015.5
20260830134532 66 176 2.6 7.8 0.02 0.43 0.42 91 1015.3
20260830134032 66 165 3.5 9.6 0.02 0.43 0.42 91 1015.5
20260830133532 66 235 2.6 9.6 0.02 0.43 0.42 91 1015.5
20260830133033 65 177 2.6 8.7 0.02 0.43 0.42 91 1015.8
20260830132532 65 34 2.6 7.8 0.02 0.43 0.42 91 1016.1
20260830132032 66 195 1.7 8.7 0.03 0.43 0.42 91 1016.2
20260830131532 66 181 3.5 7.8 0.03 0.43 0.42 91 1016.2
20260830131032 66 159 2.6 9.6 0.03 0.43 0.42 91 1016.3
20260830130532 66 257 3.5 11.3 0.05 0.43 0.42 90 1016.4
20260830130034 66 328 3.5 11.3 0.05 0.43 0.42 90 1016.6
20260830125531 66 214 3.5 10.4 0.06 0.42 0.41 90 1016.9
20260830125032 66 178 2.6 7.8 0.05 0.41 0.40 90 1016.8
20260830124532 66 199 1.7 4.3 0.06 0.41 0.40 90 1017.0
20260830124032 66 200 2.6 3.5 0.06 0.41 0.40 90 1016.8
20260830123531 66 181 0.9 4.3 0.07 0.41 0.40 90 1016.6
20260830123033 66 156 0.9 4.3 0.07 0.41 0.40 90 1016.5
20260830122533 66 166 0.9 4.3 0.08 0.41 0.40 90 1016.4
20260830122032 66 188 0.9 5.2 0.09 0.40 0.39 90 1016.7
20260830121531 66 161 1.7 5.2 0.11 0.40 0.39 90 1016.7
20260830121032 66 178 0.9 3.5 0.12 0.39 0.38 90 1016.7
20260830120531 66 198 0.9 5.2 0.13 0.38 0.37 90 1016.8
20260830120032 66 172 2.6 5.2 0.18 0.37 0.36 90 1016.8
20260830115532 66 80 0.9 3.5 0.20 0.36 0.35 90 1016.7
20260830115030 66 182 0.9 1.7 0.21 0.36 0.35 89 1016.8
20260830114531 66 1 0.0 0.0 0.20 0.35 0.34 89 1016.7
20260830114030 66 1 0.0 0.9 0.22 0.35 0.34 89 1016.8
20260830113531 66 1 0.0 0.9 0.26 0.34 0.33 89 1016.7
20260830113031 66 32 0.0 0.9 0.31 0.34 0.33 89 1016.3
20260830112531 66 276 0.9 0.9 0.30 0.33 0.32 89 1016.4
20260830112030 66 314 0.0 1.7 0.28 0.31 0.30 89 1016.8
20260830111531 66 336 0.0 1.7 0.27 0.29 0.28 89 1016.6
20260830111031 67 12 0.0 0.9 0.26 0.27 0.26 88 1016.5
20260830110531 67 12 0.0 1.7 0.24 0.25 0.24 88 1016.4
20260830110034 67 11 0.0 1.7 0.18 0.19 0.18 88 1016.3
20260830105531 67 86 0.0 0.0 0.15 0.16 0.15 88 1016.2
20260830105031 67 86 0.0 0.9 0.14 0.15 0.14 88 1015.8
20260830104532 67 74 0.0 0.9 0.14 0.15 0.14 88 1015.7
20260830104031 67 161 0.0 0.9 0.12 0.13 0.12 88 1015.8
20260830103532 67 197 0.0 2.6 0.07 0.08 0.07 87 1015.9
20260830103032 67 193 0.9 2.6 0.02 0.03 0.02 87 1016.1
20260830102532 67 20 0.9 1.7 0.02 0.03 0.02 87 1015.8
20260830102032 67 197 0.0 2.6 0.02 0.03 0.02 87 1015.7
20260830101532 67 226 0.9 2.6 0.01 0.02 0.01 87 1015.6
20260830101032 67 223 0.0 4.3 0.00 0.01 0.00 87 1015.6
20260830100531 67 96 0.9 4.3 0.00 0.01 0.00 87 1015.5
20260830100034 67 324 0.9 6.1 0.00 0.01 0.00 87 1015.0
20260830095531 67 251 2.6 6.1 0.00 0.01 0.00 87 1014.6
20260830095032 67 177 0.9 4.3 0.00 0.01 0.00 87 1014.7
20260830094531 67 230 0.0 3.5 0.00 0.01 0.00 87 1015.0
20260830094032 67 108 0.9 3.5 0.00 0.01 0.00 87 1015.1
20260830093532 67 227 0.9 5.2 0.00 0.01 0.00 87 1015.0
20260830093032 67 210 0.0 6.1 0.00 0.01 0.00 87 1015.0
20260830092531 67 191 1.7 6.1 0.00 0.01 0.00 87 1015.2
20260830092007 67 258 1.7 3.5 0.00 0.01 0.00 87 1015.1
20260830091506 67 215 1.7 4.3 0.00 0.01 0.00 87 1015.1
20260830091006 67 245 1.7 3.5 0.00 0.01 0.00 87 1015.3
20260830090507 67 224 0.9 3.5 0.00 0.01 0.00 87 1015.4
20260830090007 67 105 1.7 5.2 0.00 0.01 0.00 87 1015.6
20260830085506 67 52 1.7 5.2 0.00 0.01 0.00 87 1015.7
20260830085006 67 157 0.9 3.5 0.00 0.01 0.00 88 1015.7
20260830084506 67 352 0.9 4.3 0.00 0.01 0.00 88 1015.5
20260830084007 67 212 0.9 4.3 0.00 0.01 0.00 88 1015.7
20260830083507 67 242 0.9 4.3 0.00 0.01 0.00 88 1015.6
20260830083007 67 144 0.9 4.3 0.00 0.01 0.00 88 1015.6
20260830082507 67 197 0.9 2.6 0.00 0.01 0.00 88 1015.9
20260830082006 67 221 0.9 2.6 0.00 0.01 0.00 88 1015.9
20260830081506 67 193 0.0 2.6 0.00 0.01 0.00 88 1015.9
20260830081006 67 188 0.0 2.6 0.00 0.01 0.00 88 1015.8
20260830080507 67 266 0.0 3.5 0.00 0.01 0.00 88 1015.8
20260830080007 67 209 0.9 3.5 0.00 0.01 0.00 88 1015.8
20260830075506 67 299 0.0 1.7 0.00 0.01 0.00 88 1015.8
20260830075006 67 286 0.9 2.6 0.00 0.01 0.00 88 1015.9
20260830074507 67 72 0.9 2.6 0.00 0.01 0.00 88 1015.9
20260830074006 67 179 0.9 2.6 0.00 0.01 0.00 88 1015.9
20260830073508 67 66 0.0 2.6 0.00 0.01 0.00 88 1016.0
20260830073006 67 100 0.9 2.6 0.00 0.01 0.00 88 1016.1
20260830072508 67 276 0.0 3.5 0.00 0.01 0.00 88 1016.1
20260830072006 67 35 0.9 3.5 0.00 0.01 0.00 88 1016.1
20260830071506 67 48 0.0 1.7 0.00 0.01 0.00 88 1016.2
20260830071006 67 56 0.9 1.7 0.00 0.01 0.00 88 1016.2
20260830070506 67 271 0.0 2.6 0.00 0.01 0.00 87 1016.3
20260830070008 67 24 0.9 2.6 0.00 0.01 0.00 87 1016.4
20260830065506 67 26 0.0 1.7 0.00 0.01 0.00 87 1016.4
20260830065006 67 60 0.0 1.7 0.00 0.01 0.00 87 1016.5
20260830061506 68 191 0.0 1.7 0.00 0.01 0.00 88 1016.8
20260830061007 68 67 0.0 1.7 0.00 0.01 0.00 88 1017.1
20260830060506 68 32 0.0 0.0 0.00 0.01 0.00 88 1017.1
20260830060006 68 32 0.0 0.0 0.00 0.01 0.00 88 1017.2
20260830055506 68 32 0.0 0.0 0.00 0.01 0.00 88 1017.4
20260830055006 68 32 0.0 0.0 0.00 0.01 0.00 88 1017.5
20260830054506 68 32 0.0 0.0 0.00 0.01 0.00 88 1017.5
20260830054007 68 32 0.0 0.0 0.00 0.01 0.00 88 1017.5
20260830053506 68 32 0.0 0.0 0.00 0.01 0.00 88 1017.4
20260830053006 68 32 0.0 0.0 0.00 0.01 0.00 87 1017.5
20260830052507 68 32 0.0 0.0 0.00 0.01 0.00 87 1017.5
20260830052006 68 32 0.0 0.9 0.00 0.01 0.00 87 1017.3
20260830051506 68 32 0.0 0.9 0.00 0.01 0.00 87 1017.1
20260830051006 68 32 0.0 0.0 0.00 0.01 0.00 87 1017.1
20260830050507 68 32 0.0 0.0 0.00 0.01 0.00 87 1017.0
20260830050010 68 32 0.0 0.9 0.00 0.01 0.00 87 1017.0
20260830045507 68 32 0.0 1.7 0.00 0.01 0.00 87 1017.0
20260830045007 68 61 0.0 1.7 0.00 0.01 0.00 87 1016.9
20260830044507 68 180 0.0 1.7 0.00 0.01 0.00 87 1016.9
20260830044007 68 207 0.0 0.9 0.00 0.01 0.00 87 1016.8
20260830043508 68 207 0.0 0.9 0.00 0.01 0.00 87 1016.7